Regional Weather Roundup
Issued by NWS

Home | Current Version | Previous Version | Text Only | Print | Product List | Glossary Off
Versions: 1 2 3 4 5 6 7 8 9 10 11 12 13 14 15 16 17 18 19 20 21 22 23 24 25 26 27 28 29 30 31 32 33 34 35 36 37 38 39 40 41 42 43 44 45 46 47 48 49 50

000
ASUS43 KFSD 261602
RWRSD

WEATHER ROUNDUP FOR SOUTH DAKOTA
NATIONAL WEATHER SERVICE SIOUX FALLS SD
1100 AM CDT MON SEP 26 2016

NOTE: "FAIR" INDICATES FEW OR NO CLOUDS BELOW 12,000 FEET WITH NO
SIGNIFICANT WEATHER AND/OR OBSTRUCTIONS TO VISIBILITY.


SDZ001>005-009-010-012>017-261700-
NORTHWEST AND NORTH CENTRAL SOUTH DAKOTA

CITY           SKY/WX    TMP DP  RH WIND       PRES   REMARKS
BUFFALO          N/A     62  42  47 W20       30.17F
MOBRIDGE       SUNNY     62  38  40 NW13      30.16S
$$

SDZ012>016-024>037-041>051-057-063-072>074-261700-
SOUTHWEST AND SOUTH CENTRAL SOUTH DAKOTA

CITY           SKY/WX    TMP DP  RH WIND       PRES   REMARKS
RAPID CTY ARPT SUNNY     67  40  37 NW10      30.28R
PIERRE         SUNNY     59  42  53 W8        30.20F
CUSTER         SUNNY     58  36  43 W10       30.36R
ELLSWORTH AFB  SUNNY     65  41  41 N14       30.27S
PHILIP         SUNNY     66  38  35 NW13G20   30.24F
PINE RIDGE     SUNNY     61  39  44 W8        30.31F
WINNER         FAIR      67  35  30 NW13      30.22F
$$

SDZ004>011-016>023-039-040-261700-
NORTHEAST SOUTH DAKOTA

CITY           SKY/WX    TMP DP  RH WIND       PRES   REMARKS
ABERDEEN       SUNNY     62  35  36 NW15      30.13F
WATERTOWN      SUNNY     59  38  45 W14G23    30.11S
SISSETON         N/A     62  35  36 NW20G26   30.05F
$$

SDZ017-020-022-023-036>040-048>070-261700-
SOUTHEAST SOUTH DAKOTA

CITY           SKY/WX    TMP DP  RH WIND       PRES   REMARKS
SIOUX FALLS    SUNNY     62  40  44 NW13      30.15F
HURON          SUNNY     63  36  36 NW16      30.16S
CHAMBERLAIN    MOSUNNY   63  41  43 W10       30.22S
MITCHELL       SUNNY     63  40  42 W9        30.18F
YANKTON        SUNNY     63  41  45 W16       30.18F
$$

ABBREVIATIONS USED IN REMARKS
   TC - TEMPERATURE IN CELSIUS
  WCI - WIND CHILL INDEX
   HX - HEAT INDEX
  VSB - VISIBILITY




USA.gov is the U.S. government's official web portal to all federal, state and local government web resources and services.